Regional Weather Roundup
Issued by NWS

Home | Current Version | Previous Version | Text Only | Print | Product List | Glossary Off
Versions: 1 2 3 4 5 6 7 8 9 10 11 12 13 14 15 16 17 18 19 20 21 22 23 24 25 26 27 28 29 30 31 32 33 34 35 36 37 38 39 40 41 42 43 44 45 46 47 48 49 50

000
ASUS43 KIND 091109
RWRIN

WEATHER ROUNDUP FOR INDIANA
NATIONAL WEATHER SERVICE INDIANAPOLIS IN
600 AM EST FRI DEC 09 2016

NOTE: "FAIR" INDICATES FEW OR NO CLOUDS BELOW 12,000 FEET WITH NO
SIGNIFICANT WEATHER AND/OR OBSTRUCTIONS TO VISIBILITY.

* - STATION DOES NOT REPORT WEATHER SUCH AS PRECIPITATION OR FOG.

+ - STATION NOT QUALITY CONTROLLED BY THE NATIONAL WEATHER SERVICE.
    USE DATA WITH CAUTION...ESPECIALLY DEWPOINT AND RELATIVE
    HUMIDITY OBSERVATIONS.

INZ001>003-010>013-019-020-091200-
NORTHWEST INDIANA

CITY           SKY/WX    TMP DP  RH WIND       PRES   REMARKS
GARY /AIRPORT/ CLOUDY    23  18  80 W7        30.47R WCI  15
KNOX *+        CLOUDY    23   3  42 W12G21    30.45R WCI  12
LA PORTE +     FLURRIES  22  18  83 W12       30.43R WCI  11
MICHIGAN CITY+ FLURRIES  28  23  80 W7G16     30.43R WCI  21
MONTICELLO +   FLURRIES  22  14  70 W9        30.48R WCI  12
RENSSELAER +   FLURRIES  23  21  93 W10       30.48R WCI  12
VALPARAISO     CLOUDY    23  16  74 MISG      30.45S

$$

LMZ046-743>745-091200-
SOUTHERN LAKE MICHIGAN

STATION/POSITION TIME  TEMP    WIND        PRES    WAVE
                       AIR SEA DIR/SP/G            HT
                 (UTC) (F)     (DEG/KT/KT) (MB)    (FT)

$$

INZ004-005-014>016-021>024-091200-
NORTH CENTRAL INDIANA

CITY           SKY/WX    TMP DP  RH WIND       PRES   REMARKS
GOSHEN         PTCLDY    22  16  78 SW15      30.39R WCI   9
LOGANSPORT +   CLOUDY    21  18  86 W12       30.47S WCI   9
PERU/GRISSOM   FLURRIES  21  17  84 W13       30.44R WCI   9
ROCHESTER +    CLEAR     23  21  93 W9        30.43S WCI  13
SOUTH BEND     CLOUDY    21  18  88 W14       30.39S WCI   8
WARSAW +       MOCLDY    21  16  79 W12       30.41R WCI   9

$$

INZ006>009-017-018-025>027-091200-
NORTHEAST INDIANA

CITY           SKY/WX    TMP DP  RH WIND       PRES   REMARKS
ANGOLA *+      CLOUDY    21  19  93 W8        30.34R WCI  12
AUBURN +       CLOUDY    23  18  80 W10G16    30.38S WCI  12
FORT WAYNE     MOCLDY    22  16  78 W16       30.41R WCI   8
HUNTINGTON +   CLOUDY    21  17  84 W13       30.42R WCI   8
KENDALLVILLE + MOCLDY    22  18  85 W14G21    30.36S WCI   9

$$

INZ028-029-035-036-043>045-051>053-091200-
WEST CENTRAL INDIANA

CITY           SKY/WX    TMP DP  RH WIND       PRES   REMARKS
CRAWFORDSVL +  FLURRIES  19  17  95 W5        30.50S WCI  12
GREENCASTLE +  LGT SNOW  19  19 100 W3        30.51S
LAFAYETTE      CLOUDY    21  16  81 W7        30.50R WCI  12
TERRE HAUTE    CLOUDY    22  13  68 W8        30.54S WCI  12

$$

INZ030>032-037>040-046>048-054>057-064-065-091200-
CENTRAL INDIANA

CITY           SKY/WX    TMP DP  RH WIND       PRES   REMARKS
CP ATTERBURY + FLURRIES  23  16  74 W5        30.53R WCI  17
FISHERS *+     CLOUDY    19  16  86 W9        30.48S WCI   9
FRANKFORT +    FLURRIES  23  19  83 W12       30.49S WCI  12
GREENWOOD *+   CLOUDY    21  18  86 W9        30.50S WCI  11
INDIANAPOLIS   FLURRIES  21  16  81 W9        30.49S WCI  11
-EAGLE CREEK   FLURRIES  21  15  78 W8        30.49R WCI  11
KOKOMO +       FLURRIES  20  17  88 W15       30.46R WCI   6
MARION +       CLEAR     17  15  88 W12       30.45R WCI   5
MT COMFORT *+  CLOUDY    21  14  73 W13G18    30.48S WCI   9
SHELBYVILLE    LGT SNOW  21  15  78 W9        30.49R WCI  11
ZIONSVILLE +   CLOUDY    19  15  82 W7        30.48R WCI  10

$$

INZ033-034-041-042-049-050-058-059-091200-
EAST CENTRAL INDIANA

CITY           SKY/WX    TMP DP  RH WIND       PRES   REMARKS
MUNCIE         CLEAR     19  15  84 W9        30.45R WCI   8

$$

INZ060-061-067>069-081>083-085>088-091200-
SOUTHWEST INDIANA

CITY           SKY/WX    TMP DP  RH WIND       PRES   REMARKS
EVANSVILLE     CLOUDY    23  13  65 NW6       30.60R WCI  16
HUNTINGBURG *+ CLOUDY    23  16  74 NW8       30.57S WCI  14
WASHINGTON +   CLOUDY    22  15  72 NW9       30.57S WCI  12

$$

INZ062-063-066-070>080-084-089>092-091200-
SOUTH CENTRAL AND SOUTHEAST INDIANA

CITY           SKY/WX    TMP DP  RH WIND       PRES   REMARKS
BLOOMINGTON    FLURRIES  20  13  74 W6        30.52S WCI  12
MADISON *+     CLOUDY    23  14  68 W7        30.54R WCI  15
NORTH VERNON + FLURRIES  23  19  86 W7        30.52S WCI  15
SEYMOUR +      CLOUDY    23  12  63 NW6       30.54R WCI  16

$$





USA.gov is the U.S. government's official web portal to all federal, state and local government web resources and services.